Date String (YYYY-MM-DD hh:mm:ss) UTC,Instrument flags,Ambient pressure (hPa),Sample flow (lpm),Bypass flow (lpm),Sample temperature (°C),Ambient temperature (°C),ASC tube jacket temperature (°C),LED temperature (°C),Box temperature (°C),Sample RH (%),Span deviation,Mass concentration (μg/m³),Mass concentration (μg/m³),Mass concentration (μg/m³)
DateTimeUTC,F1_M11,P_M11,Q1_M11,Q2_M11,T1_M11,T2_M11,T3_M11,T4_M11,T5_M11,U1_M11,ZSPAN_M11,X0_M11,X2_M11,X1_M11
2022-12-09 17:00:00,,0823.7,5.01,0.00,22.6,21.8,00.0,31.2,24.6,05.5,0000.0,0003.57,0001.57,0001.10
2022-12-09 17:01:00,,0823.7,5.01,0.00,22.6,21.9,00.0,31.3,24.6,05.6,0000.0,0004.81,0001.58,0001.09
2022-12-09 17:02:00,,0823.7,4.99,0.00,22.6,21.9,00.0,31.3,24.7,05.6,0000.0,0005.09,0001.56,0001.09
2022-12-09 17:03:00,,0823.7,5.04,0.00,22.7,21.9,00.0,31.3,24.7,05.6,0000.0,0004.93,0001.55,0001.10
2022-12-09 17:04:00,,0823.7,4.99,0.00,22.7,22.0,00.0,31.3,24.8,05.7,0000.0,0005.47,0001.56,0001.12
2022-12-09 17:05:00,,0823.7,4.99,0.00,22.7,22.0,00.0,31.4,24.8,05.7,0000.0,0006.19,0001.61,0001.14
2022-12-09 17:06:00,,0823.7,5.02,0.00,22.8,22.1,00.0,31.4,24.9,05.6,0000.0,0005.81,0001.58,0001.15
2022-12-09 17:07:00,,0823.7,5.01,0.00,22.8,22.1,00.0,31.4,24.9,05.6,0000.0,0005.85,0001.58,0001.14
2022-12-09 17:08:00,,0823.7,4.99,0.00,22.8,22.1,00.0,31.5,25.0,05.5,0000.0,0005.95,0001.61,0001.15
2022-12-09 17:09:00,,0823.7,5.01,0.00,22.9,22.2,00.0,31.5,25.0,05.6,0000.0,0006.51,0001.58,0001.13
2022-12-09 17:10:00,,0823.7,5.00,0.00,22.9,22.2,00.0,31.5,25.0,05.5,0000.0,0006.23,0001.52,0001.12
2022-12-09 17:11:00,,0823.8,5.02,0.00,22.9,22.2,00.0,31.6,25.0,05.6,0000.0,0006.19,0001.53,0001.13
2022-12-09 17:12:00,,0823.8,5.02,0.00,23.0,22.2,00.0,31.6,25.0,05.5,0000.0,0005.08,0001.52,0001.13
2022-12-09 17:13:00,,0823.8,4.98,0.00,23.0,22.2,00.0,31.6,25.0,05.4,0000.0,0004.75,0001.51,0001.12
2022-12-09 17:14:00,,0823.7,4.97,0.00,23.0,22.2,00.0,31.6,25.0,05.5,0000.0,0004.76,0001.49,0001.11
2022-12-09 17:15:00,,0823.7,5.00,0.00,23.0,22.2,00.0,31.6,25.0,05.5,0000.0,0004.20,0001.49,0001.10
2022-12-09 17:16:00,,0823.6,5.01,0.00,23.1,22.2,00.0,31.6,25.0,05.7,0000.0,0003.21,0001.45,0001.09
2022-12-09 17:17:00,,0823.7,5.02,0.00,23.1,22.3,00.0,31.7,25.0,05.8,0000.0,0003.08,0001.40,0001.08
2022-12-09 17:18:00,,0823.7,4.99,0.00,23.1,22.3,00.0,31.7,25.0,05.8,0000.0,0003.52,0001.41,0001.09
2022-12-09 17:19:00,,0823.7,5.00,0.00,23.1,22.4,00.0,31.7,25.1,05.7,0000.0,0003.90,0001.42,0001.10
2022-12-09 17:20:00,,0823.7,4.99,0.00,23.2,22.4,00.0,31.8,25.2,05.6,0000.0,0003.64,0001.45,0001.10
2022-12-09 17:21:00,,0823.7,5.00,0.00,23.3,22.5,00.0,31.8,25.3,05.6,0000.0,0003.81,0001.50,0001.12
2022-12-09 17:22:00,,0823.8,5.04,0.00,23.3,22.6,00.0,31.8,25.4,05.7,0000.0,0003.82,0001.50,0001.12
2022-12-09 17:40:00,,0823.3,5.04,0.00,23.9,22.9,00.0,32.5,26.0,04.5,0000.0,0003.69,0001.13,0000.75
2022-12-09 17:41:00,,0823.3,5.04,0.00,23.9,22.9,00.0,32.5,26.0,04.6,0000.0,0003.75,0001.14,0000.76
2022-12-09 17:42:00,,0823.3,5.03,0.00,24.0,22.9,00.0,32.5,26.0,04.5,0000.0,0003.84,0001.14,0000.75
2022-12-09 17:43:00,,0823.2,5.00,0.00,24.0,22.9,00.0,32.5,26.0,04.5,0000.0,0004.08,0001.23,0000.76
2022-12-09 17:44:00,,0823.3,4.98,0.00,24.0,22.9,00.0,32.6,26.0,04.5,0000.0,0004.21,0001.24,0000.77
2022-12-09 17:45:00,,0823.2,5.00,0.00,24.0,22.9,00.0,32.6,26.0,04.5,0000.0,0004.25,0001.25,0000.77
2022-12-09 17:46:00,,0823.2,5.02,0.00,24.0,22.9,00.0,32.6,26.0,04.7,0000.0,0004.24,0001.25,0000.76
2022-12-09 17:47:00,,0823.2,5.00,0.00,24.0,22.9,00.0,32.6,26.0,04.8,0000.0,0004.02,0001.18,0000.76
2022-12-09 17:48:00,,0823.2,4.99,0.00,24.0,22.9,00.0,32.6,26.0,04.5,0000.0,0003.87,0001.14,0000.75
2022-12-09 17:49:00,,0823.2,4.99,0.00,24.0,22.9,00.0,32.7,26.0,04.4,0000.0,0003.76,0001.09,0000.74
2022-12-09 17:50:00,,0823.1,5.02,0.00,24.0,22.9,00.0,32.7,26.0,04.4,0000.0,0003.54,0001.05,0000.73
2022-12-09 17:51:00,,0823.1,5.04,0.00,24.1,23.0,00.0,32.7,26.1,04.4,0000.0,0002.38,0001.03,0000.73
2022-12-09 17:52:00,,0823.1,4.99,0.00,24.1,23.0,00.0,32.7,26.1,04.4,0000.0,0002.30,0001.03,0000.72
2022-12-09 17:53:00,,0823.0,5.01,0.00,24.1,23.0,00.0,32.7,26.1,04.5,0000.0,0002.33,0001.04,0000.73
2022-12-09 17:54:00,,0822.9,5.01,0.00,24.1,23.0,00.0,32.7,26.1,04.4,0000.0,0002.14,0000.98,0000.72
2022-12-09 17:55:00,,0823.0,4.99,0.00,24.1,23.1,00.0,32.7,26.2,04.5,0000.0,0001.94,0000.94,0000.72
2022-12-09 17:56:00,,0823.0,4.98,0.00,24.1,23.1,00.0,32.8,26.2,04.6,0000.0,0002.07,0000.97,0000.74
2022-12-09 17:57:00,,0822.9,5.01,0.00,24.2,23.2,00.0,32.8,26.2,04.6,0000.0,0002.04,0000.97,0000.74
2022-12-09 17:58:00,,0823.0,5.01,0.00,24.2,23.2,00.0,32.8,26.2,04.5,0000.0,0002.62,0000.98,0000.74
2022-12-09 17:59:00,,0822.9,4.98,0.00,24.2,23.2,00.0,32.8,26.3,04.8,0000.0,0002.98,0001.01,0000.74
